EHI
27 26 24 24 25 25 21 18 17 14 11 10 10 11 9 8 7 8 8 9 12 13 12 11 11 11 11 10 9 9 9 8 6 3 3 5 6 4 2 3 4 5 6
27 27 27 26 26 24 22 20 19 15 11 9 9 9 8 7 7 9 10 10 11 12 12 11 11 12 12 10 7 6 6 7 6 4 3 6 6 5 4 6 6 6 6
28 29 29 28 25 22 21 21 20 16 13 11 10 9 8 7 8 10 11 11 11 12 12 11 11 13 13 11 8 6 5 5 6 5 5 7 8 7 8 9 10 9 8
26 26 26 24 22 20 19 19 18 15 13 12 12 11 9 9 10 11 12 11 11 11 9 8 8 10 11 11 10 10 9 8 8 7 7 8 9 9 9 11 13 12 10
21 21 19 18 17 17 16 15 14 12 9 9 10 10 8 8 9 10 10 9 8 8 7 5 4 6 7 7 8 10 11 11 11 10 9 9 9 10 10 11 13 14 12
19 17 15 14 13 13 13 12 12 11 9 8 9 8 6 5 5 5 6 6 6 7 7 6 5 5 5 5 5 6 7 9 11 12 11 10 10 11 11 11 13 13 12
20 18 16 14 13 11 10 11 12 12 11 10 9 8 6 4 3 2 2 5 6 7 8 8 7 5 5 5 4 4 5 6 8 10 12 11 10 11 12 12 14 14 13
22 21 19 17 16 14 12 12 13 13 12 10 9 9 8 6 3 1 1 4 7 8 10 10 8 6 5 5 6 6 7 7 6 6 9 9 8 10 11 12 14 15 15
21 22 21 19 17 15 13 12 12 12 10 10 9 10 10 7 4 1 2 5 8 10 11 10 8 6 5 5 6 8 8 8 6 5 5 5 5 6 8 10 13 14 14
18 18 17 15 13 12 11 10 10 9 9 8 8 9 10 8 5 1 2 6 10 11 11 10 8 6 4 4 6 8 8 8 7 6 5 5 5 6 7 9 12 14 13
16 15 13 11 9 9 9 9 9 9 9 8 8 8 9 8 5 1 1 4 8 9 9 10 7 4 2 2 3 6 7 7 8 9 8 7 8 10 10 11 13 13 13
15 14 12 10 8 7 8 9 9 9 9 9 9 9 9 8 5 1 0 1 3 5 7 8 6 2 1 0 1 2 3 4 7 9 9 9 10 12 14 15 14 13 13
15 14 12 10 8 7 8 8 8 8 8 8 8 9 10 9 6 3 1 0 1 3 4 4 3 1 0 0 0 0 0 1 4 6 7 8 9 11 13 15 15 14 13
15 14 13 11 10 9 8 7 7 8 8 8 9 9 9 9 8 6 4 2 1 1 1 1 1 1 0 0 0 0 1 1 2 2 2 4 6 8 10 11 13 13 13
15 14 12 12 12 11 9 6 5 7 8 8 8 7 7 6 6 6 6 4 1 0 0 2 3 3 2 2 2 2 3 3 2 1 0 1 3 5 7 8 9 10 11
15 14 12 11 11 11 10 7 5 4 4 4 4 4 3 2 2 2 3 3 1 0 1 3 4 4 4 4 5 5 5 4 3 1 0 1 2 3 5 7 7 6 6
14 15 14 11 10 10 10 8 6 3 2 1 2 1 0 0 0 0 0 0 0 0 1 2 2 3 3 3 5 5 5 5 4 3 1 1 1 2 4 5 5 4 3
12 14 15 13 10 9 9 8 7 5 3 3 2 1 0 0 0 0 0 0 0 0 0 0 0 1 1 1 1 2 3 4 5 5 4 2 1 1 2 4 4 2 2
10 12 13 12 11 10 10 8 7 5 4 3 3 1 0 0 0 0 0 0 0 0 0 0 0 0 0 0 1 1 1 3 4 5 5 5 3 2 1 1 1 1 1
8 8 9 10 10 10 10 8 7 6 5 4 3 2 1 1 1 1 0 0 0 0 0 0 0 0 0 0 1 2 2 3 3 4 5 6 4 2 1 0 0 0 0
6 5 7 8 9 9 9 8 7 6 5 4 4 2 1 2 2 2 1 0 0 0 0 0 0 0 0 0 1 1 2 3 2 2 4 4 3 1 1 2 2 1 0
6 5 6 7 7 7 7 6 6 5 5 5 4 2 1 2 2 2 1 0 0 0 0 0 0 0 0 0 0 0 1 2 1 1 3 3 2 1 2 3 3 2 1
6 6 6 6 6 6 5 4 4 4 4 4 3 1 0 1 1 1 0 0 0 0 0 0 0 0 0 0 0 0 1 1 0 1 2 3 3 3 3 3 3 2 2
6 6 6 6 6 6 4 3 3 3 3 3 2 1 0 0 0 0 0 0 0 0 0 0 0 0 0 0 0 0 0 0 0 0 1 2 3 3 3 3 1 1 1
7 7 7 7 7 6 4 3 3 3 2 1 1 0 0 0 0 0 0 0 0 0 0 0 0 0 0 0 0 0 0 0 0 0 0 1 1 2 2 2 1 0 0
9 9 9 8 7 6 4 3 3 3 1 0 0 0 0 0 0 0 0 0 0 0 0 0 0 0 0 0 0 0 0 0 0 0 0 0 0 1 1 1 0 0 0
Wind_Speed
6 5 5 4 4 3 3 2 2 2 2 3 2 2 2 2 2 2 3 2 3 3 3 3 3 4 3 3 3 3 4 4 5 3 3 3 3 4 3 4 5 6 6
5 5 5 4 3 3 2 2 2 2 3 2 2 2 3 2 3 3 3 3 3 3 3 3 3 3 3 3 3 4 4 4 5 5 4 4 5 5 4 5 5 5 4
5 5 4 3 3 2 2 2 2 2 3 3 3 3 3 3 3 3 4 3 3 3 3 3 3 3 3 3 4 4 4 4 4 5 4 3 4 4 4 5 5 3 5
4 4 3 2 2 2 1 1 2 2 3 3 3 3 3 3 3 3 3 3 3 3 3 3 3 3 3 4 4 4 4 4 4 5 4 4 4 4 4 4 4 4 4
4 3 3 2 2 1 0 0 1 2 2 3 3 3 3 3 2 2 3 3 3 4 4 4 3 3 3 4 4 3 4 4 4 4 4 4 4 4 5 4 4 4 4
4 3 3 2 1 1 1 0 0 1 1 2 3 3 3 2 2 2 4 4 4 4 4 4 4 4 4 4 4 4 4 5 5 5 4 4 4 5 4 4 4 5 4
4 4 3 2 2 1 1 1 1 1 1 1 2 2 2 0 1 1 4 6 5 4 4 5 5 3 3 4 4 6 6 7 7 7 6 6 5 4 4 6 5 5 5
4 3 3 3 2 2 1 1 1 1 1 1 2 2 2 1 1 2 5 7 5 5 5 5 5 4 3 3 5 4 5 5 6 7 6 6 5 4 5 6 5 6 6
3 3 3 3 2 2 1 1 1 2 2 2 2 2 2 1 1 1 4 6 5 5 5 5 5 5 1 3 5 5 5 5 5 6 6 6 6 6 6 5 6 6 6
3 3 3 2 2 2 1 1 1 2 2 3 2 2 2 2 2 1 4 5 4 5 4 5 4 4 2 3 5 5 6 5 6 5 6 7 8 8 8 8 7 7 6
3 3 2 2 2 2 2 2 2 2 2 3 2 2 2 2 1 2 2 4 4 5 4 4 2 3 3 5 6 6 5 6 6 6 6 6 6 6 6 7 7 7 6
3 3 3 2 3 2 2 2 3 3 3 3 3 3 2 2 1 2 3 5 6 5 4 4 1 1 3 5 6 5 6 6 6 5 5 5 5 5 5 5 6 7 7
3 3 3 3 3 2 3 3 4 4 4 3 3 3 2 2 1 3 5 6 6 5 4 3 3 3 5 5 6 6 6 6 6 6 6 5 5 5 5 5 6 6 7
4 4 4 4 3 3 3 3 3 3 3 3 3 3 3 2 2 2 2 2 4 4 3 2 4 6 6 5 4 5 5 5 6 6 6 6 5 5 5 5 5 4 5
4 4 4 3 3 3 3 2 3 2 2 3 3 4 4 3 2 3 4 4 4 3 4 4 3 3 3 3 3 3 4 4 5 6 6 5 5 5 5 5 4 5 5
3 4 3 3 3 3 3 3 2 3 3 4 3 4 3 2 2 3 4 5 5 4 4 4 3 3 3 3 3 3 4 4 4 5 5 5 5 5 4 4 4 4 5
4 3 4 3 3 4 4 3 3 4 6 6 5 5 4 3 3 4 4 5 5 4 4 4 4 4 4 4 4 4 4 4 3 4 5 5 5 5 4 4 4 4 4
4 3 4 3 3 4 4 4 4 4 3 3 5 6 5 5 5 5 4 3 3 4 4 4 4 4 4 4 4 4 4 4 3 4 4 5 5 4 4 4 4 4 4
4 3 3 3 4 4 3 4 4 4 4 3 2 3 5 5 5 5 4 4 4 4 4 4 4 4 4 4 4 4 5 4 4 4 4 4 4 4 4 4 4 3 4
3 2 4 4 4 3 3 3 3 3 4 3 3 2 1 2 2 2 3 4 4 4 4 4 4 4 4 4 4 4 5 4 3 4 4 4 4 4 5 5 4 4 4
3 2 3 4 3 3 3 3 3 3 4 3 3 1 2 4 4 3 3 3 4 4 4 4 4 4 4 4 4 4 5 4 4 4 4 4 4 4 4 4 4 4 4
3 2 3 3 2 3 3 3 3 3 4 4 2 2 4 4 3 3 3 3 3 4 3 3 4 4 4 5 4 4 4 4 4 4 4 4 4 4 4 4 4 4 4
3 2 2 2 2 1 2 3 3 3 2 2 2 1 1 2 3 2 3 3 3 3 3 3 3 4 4 4 4 4 4 4 4 5 5 5 4 4 4 4 5 5 4
2 2 2 1 2 2 2 2 2 3 2 2 2 2 1 2 3 3 2 2 2 3 3 3 3 4 6 5 4 3 3 4 5 5 6 5 5 5 5 4 5 5 5
2 2 2 2 2 2 2 2 2 3 2 2 2 2 2 2 2 3 2 3 3 3 3 4 3 4 6 6 4 4 3 4 4 5 5 5 5 5 5 5 5 4 4
2 2 2 2 2 2 2 2 2 2 2 1 1 1 2 2 2 3 2 2 2 3 3 3 4 5 5 4 3 3 2 2 3 5 5 4 4 4 5 4 5 4 4
Wind_Direction
193 191 192 189 189 198 212 220 227 247 245 245 245 250 254 253 251 248 255 244 245 250 251 245 255 270 270 261 256 251 245 242 247 249 240 225 211 236 200 223 220 214 189
185 190 187 183 189 200 214 220 219 227 237 233 236 246 253 256 256 252 255 253 247 245 250 255 258 258 264 267 261 250 245 241 240 240 233 222 217 225 222 232 230 219 213
180 187 183 182 189 208 222 229 228 227 233 236 233 243 256 260 257 257 260 266 264 257 255 256 265 266 259 265 260 251 248 243 236 236 235 223 220 220 222 229 233 230 233
177 182 176 175 185 204 216 239 244 242 243 251 251 249 253 258 262 262 258 261 268 267 261 257 259 263 273 278 260 247 247 247 234 237 235 225 218 212 223 230 226 213 234
169 175 172 170 171 169 116 327 288 277 260 251 250 249 251 248 264 284 275 261 262 266 263 262 261 266 297 292 288 270 246 238 239 238 237 233 223 213 225 233 236 234 222
166 171 166 171 166 161 176 190 229 275 280 253 242 249 257 278 45 331 289 276 267 264 266 266 256 234 239 243 266 271 268 250 248 248 247 240 234 232 235 238 240 243 237
165 165 163 174 172 173 200 186 214 251 280 289 277 265 263 299 68 286 282 276 268 269 269 268 271 272 264 262 238 231 241 248 252 258 255 254 246 243 249 246 245 252 258
161 163 164 175 175 175 192 206 223 237 254 269 283 288 274 255 151 260 275 261 267 265 264 264 268 269 272 286 274 263 256 245 241 240 253 259 260 260 246 250 254 245 249
159 164 166 175 176 180 191 227 246 258 262 261 260 272 272 255 122 261 277 265 260 261 260 258 262 261 260 276 266 264 267 265 240 230 245 259 269 259 249 247 243 245 247
172 171 169 176 189 207 221 252 264 263 266 273 279 280 281 294 98 83 289 272 271 269 257 247 231 250 247 246 256 260 261 269 277 256 233 238 243 237 224 235 246 246 250
182 181 177 189 208 216 232 250 259 264 279 281 279 270 264 268 173 165 271 286 289 278 273 264 243 180 235 242 253 258 264 278 273 266 259 251 244 238 229 228 240 251 252
180 188 191 209 237 220 221 234 246 253 244 245 251 260 254 232 228 194 227 258 291 283 279 282 303 149 248 251 251 260 265 266 261 260 259 258 256 251 246 241 236 243 253
194 193 197 210 228 233 234 231 232 234 247 256 260 269 275 272 206 197 215 234 255 270 287 310 299 260 248 244 235 243 248 249 252 255 256 255 255 257 258 247 232 232 242
210 208 210 217 223 220 239 239 239 249 259 265 270 275 278 269 286 295 279 254 239 252 278 269 236 233 238 256 254 232 239 252 261 264 265 262 257 253 249 248 245 239 240
222 223 227 225 221 224 226 245 252 252 278 277 280 283 289 289 331 331 301 298 299 301 296 277 275 272 261 258 258 257 256 252 251 258 264 268 265 258 251 246 248 250 245
236 235 239 236 229 236 232 215 200 229 197 221 255 279 282 306 301 280 279 282 279 275 266 265 268 273 275 275 272 262 255 257 260 263 267 269 268 266 263 253 242 244 250
250 251 251 243 234 239 241 245 231 211 203 212 222 233 251 261 258 256 266 272 261 238 244 261 267 269 270 271 275 276 273 269 270 271 272 270 270 268 265 260 251 246 251
253 241 251 249 243 242 243 249 252 254 244 232 213 210 218 225 234 241 249 258 247 229 251 264 272 278 278 279 280 282 284 280 270 268 268 271 269 265 264 261 255 254 255
263 270 271 270 257 248 243 242 248 254 258 257 253 203 204 215 219 224 215 248 264 265 265 270 273 273 274 278 285 289 288 287 289 282 273 271 269 264 261 262 261 252 258
253 264 275 273 266 258 248 248 251 256 259 260 259 270 253 243 251 229 234 255 262 267 270 275 278 281 279 277 280 281 280 278 277 276 279 275 270 268 265 264 267 263 256
276 236 231 260 262 263 262 260 259 262 263 262 265 277 283 269 263 259 258 260 266 272 275 280 284 284 281 279 279 282 282 281 280 280 278 275 275 270 269 270 267 263 260
285 274 262 267 269 274 281 273 262 264 267 268 268 219 211 247 265 275 278 276 270 272 282 287 288 289 288 284 282 281 279 281 286 283 277 273 268 269 267 265 264 263 259
274 285 281 278 283 270 262 269 268 266 270 273 282 285 262 273 279 279 280 283 284 284 282 282 285 290 291 286 283 279 280 284 282 283 285 286 285 275 267 265 266 263 258
297 309 305 284 268 270 275 279 278 272 264 262 272 282 284 284 285 284 281 286 286 286 288 285 282 289 291 288 283 281 295 303 290 276 275 273 275 277 272 266 266 265 260
319 319 310 302 281 278 285 292 291 283 269 256 261 282 296 296 297 299 295 293 294 297 302 299 289 284 285 286 293 307 344 339 315 302 279 266 264 270 275 275 269 264 258
319 314 311 316 313 305 298 294 295 298 289 283 279 289 301 299 296 295 295 296 298 300 299 297 305 308 307 303 319 336 350 340 321 303 284 274 273 275 273 267 267 262 256